| time (UTC) | temp C | wind direction | speed KPH | gust KPH | rain 1hr cm | rain 24hr cm | rain mn cm | humidity % | barometer mb |
| 20260906175208 | 37 | 137 | 3.2 | 3.2 | 0.00 | 0.00 | 0.00 | 44 | 1015.7 |
| 20260906174706 | 37 | 40 | 8.0 | 11.3 | 0.00 | 0.00 | 0.00 | 45 | 1015.8 |
| 20260906174201 | 36 | 222 | 0.0 | 1.6 | 0.00 | 0.00 | 0.00 | 45 | 1015.8 |
| 20260906173656 | 37 | 65 | 4.8 | 8.0 | 0.00 | 0.00 | 0.00 | 44 | 1016.0 |
| 20260906173151 | 37 | 167 | 1.6 | 3.2 | 0.00 | 0.00 | 0.00 | 45 | 1016.2 |
| 20260906172651 | 37 | 253 | 0.0 | 1.6 | 0.00 | 0.00 | 0.00 | 44 | 1016.1 |
| 20260906172147 | 36 | 222 | 3.2 | 3.2 | 0.00 | 0.00 | 0.00 | 46 | 1016.1 |
| 20260906171646 | 36 | 179 | 1.6 | 1.6 | 0.00 | 0.00 | 0.00 | 45 | 1016.4 |
| 20260906171142 | 36 | 107 | 1.6 | 3.2 | 0.00 | 0.00 | 0.00 | 47 | 1016.4 |
| 20260906170638 | 36 | 215 | 1.6 | 3.2 | 0.00 | 0.00 | 0.00 | 46 | 1016.4 |
| 20260906170137 | 36 | 236 | 1.6 | 1.6 | 0.00 | 0.00 | 0.00 | 48 | 1016.4 |
| 20260906165633 | 36 | 147 | 0.0 | 0.0 | 0.00 | 0.00 | 0.00 | 47 | 1016.7 |
| 20260906165129 | 36 | 152 | 0.0 | 0.0 | 0.00 | 0.00 | 0.00 | 50 | 1016.7 |
| 20260906164627 | 35 | 201 | 0.0 | 0.0 | 0.00 | 0.00 | 0.00 | 51 | 1016.6 |
| 20260906164123 | 35 | 226 | 0.0 | 0.0 | 0.00 | 0.00 | 0.00 | 50 | 1016.6 |
| 20260906163619 | 35 | 212 | 1.6 | 1.6 | 0.00 | 0.00 | 0.00 | 50 | 1016.8 |
| 20260906163114 | 35 | 173 | 1.6 | 3.2 | 0.00 | 0.00 | 0.00 | 53 | 1016.7 |
| 20260906162611 | 34 | 217 | 0.0 | 0.0 | 0.00 | 0.00 | 0.00 | 53 | 1016.8 |
| 20260906162106 | 35 | 53 | 6.4 | 9.7 | 0.00 | 0.00 | 0.00 | 54 | 1016.7 |
| 20260906161601 | 34 | 105 | 1.6 | 3.2 | 0.00 | 0.00 | 0.00 | 54 | 1016.9 |
| 20260906161100 | 34 | 107 | 0.0 | 1.6 | 0.00 | 0.00 | 0.00 | 53 | 1016.8 |
| 20260906160559 | 33 | 202 | 3.2 | 3.2 | 0.00 | 0.00 | 0.00 | 55 | 1016.9 |
| 20260906160058 | 33 | 194 | 3.2 | 3.2 | 0.00 | 0.00 | 0.00 | 57 | 1016.8 |
| 20260906155555 | 33 | 100 | 4.8 | 4.8 | 0.00 | 0.00 | 0.00 | 58 | 1017.1 |
| 20260906155052 | 33 | 74 | 4.8 | 8.0 | 0.00 | 0.00 | 0.00 | 58 | 1017.0 |
| 20260906154547 | 32 | 108 | 0.0 | 1.6 | 0.00 | 0.00 | 0.00 | 61 | 1016.7 |
| 20260906154045 | 32 | 183 | 0.0 | 1.6 | 0.00 | 0.00 | 0.00 | 61 | 1016.8 |
| 20260906153544 | 32 | 68 | 1.6 | 1.6 | 0.00 | 0.00 | 0.00 | 62 | 1017.0 |
| 20260906153040 | 31 | 145 | 0.0 | 1.6 | 0.00 | 0.00 | 0.00 | 64 | 1016.8 |
| 20260906152539 | 31 | 123 | 3.2 | 3.2 | 0.00 | 0.00 | 0.00 | 64 | 1016.9 |
| 20260906152039 | 31 | 134 | 0.0 | 1.6 | 0.00 | 0.00 | 0.00 | 65 | 1016.9 |
| 20260906151534 | 30 | 205 | 0.0 | 0.0 | 0.00 | 0.00 | 0.00 | 66 | 1017.0 |
| 20260906151030 | 31 | 101 | 6.4 | 8.0 | 0.00 | 0.00 | 0.00 | 66 | 1016.9 |
| 20260906150525 | 31 | 141 | 0.0 | 0.0 | 0.00 | 0.00 | 0.00 | 65 | 1016.9 |
| 20260906150020 | 30 | 88 | 4.8 | 4.8 | 0.00 | 0.00 | 0.00 | 65 | 1016.8 |
| 20260906145519 | 30 | 186 | 1.6 | 1.6 | 0.00 | 0.00 | 0.00 | 67 | 1017.0 |
| 20260906145014 | 30 | 77 | 1.6 | 3.2 | 0.00 | 0.00 | 0.00 | 67 | 1017.0 |
| 20260906144508 | 30 | 101 | 0.0 | 1.6 | 0.00 | 0.00 | 0.00 | 68 | 1016.8 |
| 20260906144004 | 30 | 188 | 0.0 | 1.6 | 0.00 | 0.00 | 0.00 | 68 | 1016.8 |
| 20260906143459 | 29 | 114 | 0.0 | 0.0 | 0.00 | 0.00 | 0.00 | 67 | 1016.8 |
| 20260906142955 | 29 | 64 | 3.2 | 3.2 | 0.00 | 0.00 | 0.00 | 69 | 1016.8 |
| 20260906142449 | 30 | 69 | 1.6 | 3.2 | 0.00 | 0.00 | 0.00 | 69 | 1016.8 |
| 20260906141944 | 30 | 100 | 0.0 | 0.0 | 0.00 | 0.00 | 0.00 | 68 | 1016.6 |
| 20260906141443 | 29 | 220 | 0.0 | 0.0 | 0.00 | 0.00 | 0.00 | 69 | 1016.6 |
| 20260906140938 | 28 | 220 | 1.6 | 1.6 | 0.00 | 0.00 | 0.00 | 70 | 1016.5 |
| 20260906140433 | 28 | 139 | 1.6 | 1.6 | 0.00 | 0.00 | 0.00 | 70 | 1016.9 |
| 20260906135931 | 28 | 213 | 0.0 | 0.0 | 0.00 | 0.00 | 0.00 | 70 | 1016.8 |
| 20260906135430 | 28 | 222 | 0.0 | 0.0 | 0.00 | 0.00 | 0.00 | 71 | 1016.5 |
| 20260906134926 | 28 | 53 | 3.2 | 3.2 | 0.00 | 0.00 | 0.00 | 71 | 1016.4 |
| 20260906134421 | 27 | 213 | 0.0 | 0.0 | 0.00 | 0.00 | 0.00 | 71 | 1016.4 |
| 20260906133916 | 27 | 204 | 0.0 | 1.6 | 0.00 | 0.00 | 0.00 | 72 | 1016.6 |
| 20260906133412 | 27 | 211 | 0.0 | 0.0 | 0.00 | 0.00 | 0.00 | 74 | 1016.5 |
| 20260906132907 | 27 | 172 | 1.6 | 1.6 | 0.00 | 0.00 | 0.00 | 73 | 1016.5 |
| 20260906132402 | 27 | 66 | 0.0 | 1.6 | 0.00 | 0.00 | 0.00 | 72 | 1016.4 |
| 20260906131858 | 27 | 177 | 0.0 | 1.6 | 0.00 | 0.00 | 0.00 | 73 | 1016.4 |
| 20260906131353 | 26 | 220 | 0.0 | 0.0 | 0.00 | 0.00 | 0.00 | 75 | 1016.3 |
| 20260906130849 | 26 | 174 | 1.6 | 1.6 | 0.00 | 0.00 | 0.00 | 76 | 1016.2 |
| 20260906130348 | 26 | 216 | 0.0 | 0.0 | 0.00 | 0.00 | 0.00 | 76 | 1016.1 |
| 20260906125847 | 26 | 219 | 0.0 | 0.0 | 0.00 | 0.00 | 0.00 | 77 | 1016.4 |
| 20260906125344 | 26 | 194 | 0.0 | 1.6 | 0.00 | 0.00 | 0.00 | 78 | 1016.2 |
| 20260906124839 | 26 | 202 | 0.0 | 0.0 | 0.00 | 0.00 | 0.00 | 79 | 1016.2 |
| 20260906124335 | 25 | 149 | 0.0 | 1.6 | 0.00 | 0.00 | 0.00 | 81 | 1016.2 |
| 20260906123835 | 25 | 102 | 1.6 | 3.2 | 0.00 | 0.00 | 0.00 | 83 | 1016.2 |
| 20260906123330 | 25 | 210 | 0.0 | 0.0 | 0.00 | 0.00 | 0.00 | 85 | 1016.0 |
| 20260906122829 | 24 | 190 | 0.0 | 0.0 | 0.00 | 0.00 | 0.00 | 85 | 1016.2 |
| 20260906122324 | 24 | 203 | 0.0 | 0.0 | 0.00 | 0.00 | 0.00 | 85 | 1015.7 |
| 20260906121821 | 24 | 219 | 0.0 | 0.0 | 0.00 | 0.00 | 0.00 | 85 | 1015.9 |
| 20260906121317 | 24 | 218 | 0.0 | 0.0 | 0.00 | 0.00 | 0.00 | 85 | 1015.9 |
| 20260906120813 | 24 | 235 | 0.0 | 1.6 | 0.00 | 0.00 | 0.00 | 85 | 1015.9 |
| 20260906120309 | 24 | 287 | 1.6 | 1.6 | 0.00 | 0.00 | 0.00 | 86 | 1015.7 |
| 20260906115805 | 23 | 334 | 0.0 | 0.0 | 0.00 | 0.00 | 0.00 | 86 | 1015.6 |
| 20260906115300 | 23 | 296 | 0.0 | 0.0 | 0.00 | 0.00 | 0.00 | 86 | 1015.3 |
| 20260906114759 | 23 | 240 | 0.0 | 0.0 | 0.00 | 0.00 | 0.00 | 86 | 1015.4 |
| 20260906114254 | 23 | 239 | 0.0 | 0.0 | 0.00 | 0.00 | 0.00 | 87 | 1015.3 |
| 20260906113749 | 23 | 236 | 0.0 | 0.0 | 0.00 | 0.00 | 0.00 | 87 | 1015.5 |
| 20260906113248 | 23 | 305 | 0.0 | 0.0 | 0.00 | 0.00 | 0.00 | 88 | 1015.5 |
| 20260906112743 | 23 | 179 | 0.0 | 0.0 | 0.00 | 0.00 | 0.00 | 90 | 1015.4 |
| 20260906112239 | 23 | 69 | 1.6 | 1.6 | 0.00 | 0.00 | 0.00 | 91 | 1015.4 |
| 20260906111739 | 23 | 291 | 0.0 | 1.6 | 0.00 | 0.00 | 0.00 | 92 | 1015.2 |
| 20260906111233 | 22 | 216 | 0.0 | 0.0 | 0.00 | 0.00 | 0.00 | 92 | 1015.4 |
| 20260906110728 | 22 | 216 | 0.0 | 0.0 | 0.00 | 0.00 | 0.00 | 92 | 1015.2 |
| 20260906110225 | 22 | 216 | 0.0 | 0.0 | 0.00 | 0.00 | 0.00 | 92 | 1015.3 |
| 20260906105723 | 22 | 216 | 0.0 | 0.0 | 0.00 | 0.00 | 0.00 | 92 | 1015.3 |
| 20260906105220 | 23 | 216 | 0.0 | 0.0 | 0.00 | 0.00 | 0.00 | 92 | 1015.5 |
| 20260906104719 | 23 | 216 | 0.0 | 0.0 | 0.00 | 0.00 | 0.00 | 92 | 1015.4 |
| 20260906104218 | 23 | 217 | 0.0 | 0.0 | 0.00 | 0.00 | 0.00 | 92 | 1015.4 |
| 20260906103716 | 23 | 217 | 0.0 | 0.0 | 0.00 | 0.00 | 0.00 | 92 | 1015.5 |
| 20260906103211 | 23 | 214 | 0.0 | 0.0 | 0.00 | 0.00 | 0.00 | 91 | 1015.3 |
| 20260906102706 | 23 | 237 | 0.0 | 0.0 | 0.00 | 0.00 | 0.00 | 91 | 1015.2 |
| 20260906102205 | 23 | 237 | 0.0 | 0.0 | 0.00 | 0.00 | 0.00 | 91 | 1015.2 |
| 20260906101700 | 23 | 237 | 0.0 | 0.0 | 0.00 | 0.00 | 0.00 | 91 | 1015.4 |
| 20260906101155 | 23 | 237 | 0.0 | 0.0 | 0.00 | 0.00 | 0.00 | 91 | 1015.2 |
| 20260906100651 | 23 | 237 | 0.0 | 0.0 | 0.00 | 0.00 | 0.00 | 91 | 1015.1 |
| 20260906100151 | 23 | 237 | 0.0 | 0.0 | 0.00 | 0.00 | 0.00 | 91 | 1015.2 |
| 20260906095646 | 23 | 237 | 0.0 | 0.0 | 0.00 | 0.00 | 0.00 | 90 | 1015.2 |
| 20260906095141 | 23 | 237 | 0.0 | 0.0 | 0.00 | 0.00 | 0.00 | 90 | 1015.3 |
| 20260906094640 | 23 | 237 | 0.0 | 0.0 | 0.00 | 0.00 | 0.00 | 90 | 1015.1 |
| 20260906094136 | 23 | 237 | 0.0 | 0.0 | 0.00 | 0.00 | 0.00 | 90 | 1015.2 |
| 20260906093632 | 23 | 237 | 0.0 | 0.0 | 0.00 | 0.00 | 0.00 | 89 | 1015.2 |
| 20260906093132 | 23 | 237 | 0.0 | 0.0 | 0.00 | 0.00 | 0.00 | 89 | 1015.0 |
| 20260906092627 | 23 | 236 | 0.0 | 0.0 | 0.00 | 0.00 | 0.00 | 89 | 1015.0 |
| 20260906092122 | 23 | 236 | 0.0 | 0.0 | 0.00 | 0.00 | 0.00 | 88 | 1015.1 |
| 20260906091618 | 23 | 237 | 0.0 | 0.0 | 0.00 | 0.00 | 0.00 | 88 | 1015.0 |
| 20260906091114 | 23 | 237 | 0.0 | 0.0 | 0.00 | 0.00 | 0.00 | 88 | 1015.1 |
| 20260906090609 | 23 | 237 | 0.0 | 0.0 | 0.00 | 0.00 | 0.00 | 88 | 1015.0 |
| 20260906090109 | 23 | 237 | 0.0 | 0.0 | 0.00 | 0.00 | 0.00 | 88 | 1015.2 |
| 20260906085608 | 23 | 237 | 0.0 | 0.0 | 0.00 | 0.00 | 0.00 | 88 | 1015.1 |
| 20260906085102 | 23 | 237 | 0.0 | 0.0 | 0.00 | 0.00 | 0.00 | 88 | 1015.0 |
| 20260906084557 | 23 | 236 | 0.0 | 0.0 | 0.00 | 0.00 | 0.00 | 88 | 1015.0 |
| 20260906084056 | 23 | 236 | 0.0 | 0.0 | 0.00 | 0.00 | 0.00 | 87 | 1015.1 |
| 20260906083552 | 24 | 236 | 0.0 | 0.0 | 0.00 | 0.00 | 0.00 | 87 | 1014.9 |
| 20260906083051 | 24 | 236 | 0.0 | 0.0 | 0.00 | 0.00 | 0.00 | 87 | 1014.8 |
| 20260906082547 | 24 | 236 | 0.0 | 0.0 | 0.00 | 0.00 | 0.00 | 87 | 1014.9 |
| 20260906082042 | 24 | 236 | 0.0 | 0.0 | 0.00 | 0.00 | 0.00 | 86 | 1015.0 |
| 20260906081538 | 24 | 236 | 0.0 | 0.0 | 0.00 | 0.00 | 0.00 | 86 | 1014.8 |
| 20260906081033 | 24 | 236 | 0.0 | 0.0 | 0.00 | 0.00 | 0.00 | 86 | 1014.9 |
| 20260906080530 | 24 | 236 | 0.0 | 0.0 | 0.00 | 0.00 | 0.00 | 86 | 1014.9 |
| 20260906080026 | 24 | 236 | 0.0 | 0.0 | 0.00 | 0.00 | 0.00 | 86 | 1014.7 |
| 20260906075520 | 24 | 237 | 0.0 | 0.0 | 0.00 | 0.00 | 0.00 | 86 | 1014.6 |
| 20260906075014 | 24 | 237 | 0.0 | 0.0 | 0.00 | 0.00 | 0.00 | 86 | 1014.8 |
| 20260906074509 | 24 | 237 | 0.0 | 0.0 | 0.00 | 0.00 | 0.00 | 86 | 1014.7 |
| 20260906074008 | 24 | 237 | 0.0 | 0.0 | 0.00 | 0.00 | 0.00 | 86 | 1014.7 |
| 20260906073502 | 24 | 237 | 0.0 | 0.0 | 0.00 | 0.00 | 0.00 | 85 | 1014.8 |
| 20260906072958 | 24 | 237 | 0.0 | 0.0 | 0.00 | 0.00 | 0.00 | 85 | 1014.7 |
| 20260906072453 | 24 | 237 | 0.0 | 0.0 | 0.00 | 0.00 | 0.00 | 85 | 1014.8 |
| 20260906071949 | 24 | 237 | 0.0 | 0.0 | 0.00 | 0.00 | 0.00 | 85 | 1015.0 |
| 20260906071446 | 24 | 237 | 0.0 | 0.0 | 0.00 | 0.00 | 0.00 | 85 | 1015.0 |
| 20260906070941 | 24 | 237 | 0.0 | 0.0 | 0.00 | 0.00 | 0.00 | 84 | 1014.9 |
| 20260906070437 | 25 | 237 | 0.0 | 0.0 | 0.00 | 0.00 | 0.00 | 84 | 1015.0 |
| 20260906065932 | 25 | 237 | 0.0 | 0.0 | 0.00 | 0.00 | 0.00 | 84 | 1015.0 |
| 20260906065426 | 25 | 237 | 0.0 | 0.0 | 0.00 | 0.00 | 0.00 | 83 | 1014.9 |
| 20260906064922 | 25 | 237 | 0.0 | 0.0 | 0.00 | 0.00 | 0.00 | 83 | 1015.1 |
| 20260906064413 | 25 | 238 | 0.0 | 0.0 | 0.00 | 0.00 | 0.00 | 83 | 1014.9 |
| 20260906063913 | 25 | 238 | 0.0 | 0.0 | 0.00 | 0.00 | 0.00 | 82 | 1015.1 |
| 20260906063408 | 25 | 238 | 0.0 | 0.0 | 0.00 | 0.00 | 0.00 | 82 | 1015.2 |
| 20260906062903 | 25 | 238 | 0.0 | 0.0 | 0.00 | 0.00 | 0.00 | 81 | 1015.3 |
| 20260906062402 | 25 | 238 | 0.0 | 0.0 | 0.00 | 0.00 | 0.00 | 81 | 1015.2 |
| 20260906061858 | 25 | 239 | 0.0 | 0.0 | 0.00 | 0.00 | 0.00 | 81 | 1015.3 |
| 20260906061354 | 25 | 237 | 0.0 | 0.0 | 0.00 | 0.00 | 0.00 | 81 | 1015.1 |
| 20260906060848 | 25 | 238 | 0.0 | 0.0 | 0.00 | 0.00 | 0.00 | 81 | 1015.3 |
| 20260906060346 | 25 | 238 | 0.0 | 0.0 | 0.00 | 0.00 | 0.00 | 81 | 1015.2 |
| 20260906055842 | 25 | 238 | 0.0 | 0.0 | 0.00 | 0.00 | 0.00 | 81 | 1015.3 |
| 20260906055337 | 25 | 238 | 0.0 | 0.0 | 0.00 | 0.00 | 0.00 | 81 | 1015.2 |
| 20260906054832 | 25 | 238 | 0.0 | 0.0 | 0.00 | 0.00 | 0.00 | 81 | 1015.4 |
| 20260906054327 | 26 | 233 | 0.0 | 0.0 | 0.00 | 0.00 | 0.00 | 80 | 1015.4 |
| 20260906053824 | 26 | 235 | 0.0 | 0.0 | 0.00 | 0.00 | 0.00 | 79 | 1015.4 |
| 20260906053319 | 26 | 235 | 0.0 | 0.0 | 0.00 | 0.00 | 0.00 | 79 | 1015.2 |
| 20260906052814 | 26 | 236 | 0.0 | 0.0 | 0.00 | 0.00 | 0.00 | 78 | 1015.2 |
| 20260906052311 | 26 | 235 | 0.0 | 0.0 | 0.00 | 0.00 | 0.00 | 78 | 1015.2 |
| 20260906051808 | 26 | 235 | 0.0 | 0.0 | 0.00 | 0.00 | 0.00 | 79 | 1015.3 |
| 20260906051307 | 26 | 227 | 0.0 | 0.0 | 0.00 | 0.00 | 0.00 | 77 | 1015.3 |
| 20260906050802 | 26 | 227 | 0.0 | 0.0 | 0.00 | 0.00 | 0.00 | 76 | 1015.5 |
| 20260906050258 | 26 | 227 | 0.0 | 0.0 | 0.00 | 0.00 | 0.00 | 75 | 1015.3 |
| 20260906045756 | 26 | 227 | 0.0 | 0.0 | 0.00 | 0.00 | 0.00 | 74 | 1015.2 |
| 20260906045251 | 26 | 227 | 0.0 | 0.0 | 0.00 | 0.00 | 0.00 | 73 | 1015.2 |
| 20260906044747 | 26 | 227 | 0.0 | 0.0 | 0.00 | 0.00 | 0.00 | 73 | 1015.1 |
| 20260906044242 | 27 | 227 | 0.0 | 0.0 | 0.00 | 0.00 | 0.00 | 74 | 1015.1 |
| 20260906043738 | 27 | 227 | 0.0 | 0.0 | 0.00 | 0.00 | 0.00 | 73 | 1015.2 |
| 20260906043234 | 27 | 227 | 0.0 | 0.0 | 0.00 | 0.00 | 0.00 | 72 | 1015.2 |
| 20260906042733 | 27 | 227 | 0.0 | 0.0 | 0.00 | 0.00 | 0.00 | 71 | 1015.2 |
| 20260906042232 | 27 | 227 | 0.0 | 0.0 | 0.00 | 0.00 | 0.00 | 71 | 1015.3 |
| 20260906041727 | 28 | 227 | 0.0 | 0.0 | 0.00 | 0.00 | 0.00 | 71 | 1015.3 |
| 20260906041223 | 28 | 227 | 0.0 | 0.0 | 0.00 | 0.00 | 0.00 | 69 | 1015.2 |
| 20260906040719 | 28 | 227 | 0.0 | 0.0 | 0.00 | 0.00 | 0.00 | 66 | 1015.1 |
| 20260906040214 | 28 | 240 | 0.0 | 0.0 | 0.00 | 0.00 | 0.00 | 65 | 1015.3 |
| 20260906035709 | 28 | 260 | 0.0 | 0.0 | 0.00 | 0.00 | 0.00 | 65 | 1015.2 |
| 20260906035205 | 28 | 186 | 0.0 | 0.0 | 0.00 | 0.00 | 0.00 | 66 | 1015.2 |
| 20260906034705 | 29 | 222 | 0.0 | 0.0 | 0.00 | 0.00 | 0.00 | 69 | 1015.2 |
| 20260906034159 | 29 | 215 | 0.0 | 0.0 | 0.00 | 0.00 | 0.00 | 64 | 1015.1 |
| 20260906033655 | 29 | 255 | 0.0 | 1.6 | 0.00 | 0.00 | 0.00 | 63 | 1015.1 |
| 20260906033156 | 29 | 103 | 1.6 | 1.6 | 0.00 | 0.00 | 0.00 | 65 | 1015.1 |
| 20260906032652 | 29 | 198 | 1.6 | 1.6 | 0.00 | 0.00 | 0.00 | 65 | 1015.0 |
| 20260906032146 | 28 | 338 | 1.6 | 3.2 | 0.00 | 0.00 | 0.00 | 65 | 1014.9 |
| 20260906031642 | 28 | 223 | 0.0 | 0.0 | 0.00 | 0.00 | 0.00 | 68 | 1014.8 |
| 20260906031137 | 29 | 216 | 0.0 | 0.0 | 0.00 | 0.00 | 0.00 | 68 | 1014.7 |
| 20260906030636 | 29 | 235 | 0.0 | 0.0 | 0.00 | 0.00 | 0.00 | 66 | 1014.7 |
| 20260906030132 | 30 | 238 | 0.0 | 0.0 | 0.00 | 0.00 | 0.00 | 65 | 1014.5 |
| 20260906025631 | 30 | 256 | 1.6 | 1.6 | 0.00 | 0.00 | 0.00 | 65 | 1014.6 |
| 20260906025130 | 30 | 331 | 1.6 | 1.6 | 0.00 | 0.00 | 0.00 | 64 | 1014.6 |
| 20260906024625 | 29 | 82 | 1.6 | 3.2 | 0.00 | 0.00 | 0.00 | 64 | 1014.4 |
| 20260906024125 | 28 | 223 | 0.0 | 0.0 | 0.00 | 0.00 | 0.00 | 70 | 1014.5 |
| 20260906023621 | 29 | 223 | 0.0 | 0.0 | 0.00 | 0.00 | 0.00 | 70 | 1014.4 |
| 20260906023115 | 29 | 221 | 0.0 | 0.0 | 0.00 | 0.00 | 0.00 | 69 | 1014.3 |
| 20260906022610 | 29 | 218 | 0.0 | 0.0 | 0.00 | 0.00 | 0.00 | 69 | 1014.3 |
| 20260906022106 | 29 | 199 | 0.0 | 0.0 | 0.00 | 0.00 | 0.00 | 67 | 1014.1 |
| 20260906021602 | 29 | 233 | 0.0 | 0.0 | 0.00 | 0.00 | 0.00 | 67 | 1014.0 |
| 20260906021101 | 29 | 231 | 0.0 | 0.0 | 0.00 | 0.00 | 0.00 | 69 | 1013.8 |
| 20260906020600 | 29 | 230 | 0.0 | 0.0 | 0.00 | 0.00 | 0.00 | 69 | 1013.7 |
| 20260906020100 | 29 | 231 | 0.0 | 0.0 | 0.00 | 0.00 | 0.00 | 68 | 1013.6 |
| 20260906015554 | 29 | 231 | 0.0 | 0.0 | 0.00 | 0.00 | 0.00 | 68 | 1013.6 |
| 20260906015054 | 30 | 230 | 0.0 | 0.0 | 0.00 | 0.00 | 0.00 | 67 | 1013.6 |
| 20260906014548 | 30 | 230 | 0.0 | 0.0 | 0.00 | 0.00 | 0.00 | 66 | 1013.6 |
| 20260906014044 | 30 | 230 | 0.0 | 0.0 | 0.00 | 0.00 | 0.00 | 65 | 1013.2 |
| 20260906013539 | 30 | 230 | 0.0 | 0.0 | 0.00 | 0.00 | 0.00 | 65 | 1013.5 |
| 20260906013035 | 30 | 230 | 0.0 | 0.0 | 0.00 | 0.00 | 0.00 | 64 | 1013.4 |
| 20260906012530 | 30 | 230 | 0.0 | 0.0 | 0.00 | 0.00 | 0.00 | 62 | 1013.3 |
| 20260906012029 | 31 | 230 | 0.0 | 0.0 | 0.00 | 0.00 | 0.00 | 61 | 1013.3 |
| 20260906011526 | 31 | 229 | 0.0 | 0.0 | 0.00 | 0.00 | 0.00 | 61 | 1013.3 |
| 20260906011025 | 31 | 230 | 0.0 | 0.0 | 0.00 | 0.00 | 0.00 | 60 | 1013.4 |
| 20260906010521 | 31 | 228 | 0.0 | 0.0 | 0.00 | 0.00 | 0.00 | 61 | 1013.4 |
| 20260906010017 | 32 | 235 | 0.0 | 0.0 | 0.00 | 0.00 | 0.00 | 58 | 1013.1 |
| 20260906005516 | 32 | 235 | 0.0 | 0.0 | 0.00 | 0.00 | 0.00 | 57 | 1013.3 |
| 20260906005015 | 32 | 240 | 0.0 | 0.0 | 0.00 | 0.00 | 0.00 | 56 | 1013.2 |
| 20260906004515 | 32 | 220 | 0.0 | 0.0 | 0.00 | 0.00 | 0.00 | 56 | 1013.1 |
| 20260906004010 | 32 | 227 | 0.0 | 0.0 | 0.00 | 0.00 | 0.00 | 56 | 1013.1 |
| 20260906003505 | 33 | 232 | 0.0 | 0.0 | 0.00 | 0.00 | 0.00 | 54 | 1013.0 |
| 20260906003000 | 33 | 233 | 0.0 | 0.0 | 0.00 | 0.00 | 0.00 | 53 | 1013.0 |
| 20260906002455 | 34 | 233 | 0.0 | 0.0 | 0.00 | 0.00 | 0.00 | 52 | 1012.9 |
| 20260906001950 | 35 | 233 | 0.0 | 0.0 | 0.00 | 0.00 | 0.00 | 50 | 1013.2 |
| 20260906001446 | 35 | 233 | 0.0 | 0.0 | 0.00 | 0.00 | 0.00 | 50 | 1013.2 |
| 20260906000940 | 36 | 233 | 0.0 | 0.0 | 0.00 | 0.00 | 0.00 | 48 | 1013.2 |
| 20260906000436 | 36 | 233 | 0.0 | 0.0 | 0.00 | 0.00 | 0.00 | 46 | 1013.1 |
| 20260905235925 | 36 | 233 | 0.0 | 0.0 | 0.00 | 0.00 | 0.00 | 44 | 1013.2 |
| 20260905235424 | 37 | 231 | 0.0 | 0.0 | 0.00 | 0.00 | 0.00 | 42 | 1013.1 |
| 20260905234919 | 38 | 230 | 0.0 | 0.0 | 0.00 | 0.00 | 0.00 | 39 | 1013.1 |
| 20260905234415 | 38 | 229 | 0.0 | 0.0 | 0.00 | 0.00 | 0.00 | 38 | 1013.2 |
| 20260905233910 | 38 | 228 | 0.0 | 0.0 | 0.00 | 0.00 | 0.00 | 39 | 1013.1 |
| 20260905233405 | 38 | 233 | 0.0 | 0.0 | 0.00 | 0.00 | 0.00 | 38 | 1013.1 |
| 20260905232904 | 38 | 233 | 0.0 | 0.0 | 0.00 | 0.00 | 0.00 | 38 | 1013.1 |
| 20260905232400 | 37 | 235 | 0.0 | 0.0 | 0.00 | 0.00 | 0.00 | 39 | 1013.2 |
| 20260905231855 | 37 | 229 | 0.0 | 0.0 | 0.00 | 0.00 | 0.00 | 40 | 1013.2 |
| 20260905231350 | 37 | 240 | 0.0 | 0.0 | 0.00 | 0.00 | 0.00 | 39 | 1013.1 |
| 20260905230847 | 38 | 43 | 0.0 | 1.6 | 0.00 | 0.00 | 0.00 | 39 | 1013.1 |
| 20260905230344 | 39 | 212 | 0.0 | 0.0 | 0.00 | 0.00 | 0.00 | 37 | 1012.9 |
| 20260905225844 | 40 | 226 | 0.0 | 0.0 | 0.00 | 0.00 | 0.00 | 36 | 1013.1 |
| 20260905225339 | 38 | 231 | 0.0 | 0.0 | 0.00 | 0.00 | 0.00 | 38 | 1013.0 |
| 20260905224834 | 38 | 227 | 0.0 | 0.0 | 0.00 | 0.00 | 0.00 | 38 | 1013.0 |
| 20260905224329 | 38 | 275 | 1.6 | 1.6 | 0.00 | 0.00 | 0.00 | 38 | 1013.0 |
| 20260905223824 | 38 | 194 | 0.0 | 1.6 | 0.00 | 0.00 | 0.00 | 38 | 1013.0 |
| 20260905223322 | 38 | 218 | 0.0 | 0.0 | 0.00 | 0.00 | 0.00 | 38 | 1013.0 |
| 20260905222817 | 37 | 103 | 1.6 | 3.2 | 0.00 | 0.00 | 0.00 | 38 | 1013.0 |
| 20260905222316 | 38 | 190 | 0.0 | 1.6 | 0.00 | 0.00 | 0.00 | 38 | 1013.2 |
| 20260905221812 | 38 | 228 | 0.0 | 0.0 | 0.00 | 0.00 | 0.00 | 38 | 1013.1 |
| 20260905221309 | 38 | 227 | 0.0 | 0.0 | 0.00 | 0.00 | 0.00 | 37 | 1013.1 |
| 20260905220804 | 38 | 206 | 1.6 | 1.6 | 0.00 | 0.00 | 0.00 | 37 | 1013.2 |
| 20260905220300 | 38 | 191 | 1.6 | 1.6 | 0.00 | 0.00 | 0.00 | 36 | 1013.0 |
| 20260905215759 | 38 | 198 | 0.0 | 1.6 | 0.00 | 0.00 | 0.00 | 36 | 1013.3 |
| 20260905215255 | 38 | 221 | 0.0 | 0.0 | 0.00 | 0.00 | 0.00 | 37 | 1013.3 |
| 20260905214750 | 39 | 206 | 0.0 | 0.0 | 0.00 | 0.00 | 0.00 | 38 | 1013.3 |
| 20260905214246 | 40 | 221 | 1.6 | 3.2 | 0.00 | 0.00 | 0.00 | 36 | 1013.5 |
| 20260905213741 | 39 | 206 | 0.0 | 1.6 | 0.00 | 0.00 | 0.00 | 37 | 1013.4 |
| 20260905213237 | 38 | 218 | 1.6 | 1.6 | 0.00 | 0.00 | 0.00 | 39 | 1013.5 |
| 20260905212732 | 38 | 232 | 0.0 | 1.6 | 0.00 | 0.00 | 0.00 | 38 | 1013.6 |
| 20260905212232 | 38 | 203 | 0.0 | 1.6 | 0.00 | 0.00 | 0.00 | 38 | 1013.6 |
| 20260905211731 | 38 | 213 | 0.0 | 0.0 | 0.00 | 0.00 | 0.00 | 36 | 1013.7 |
| 20260905211227 | 37 | 229 | 0.0 | 0.0 | 0.00 | 0.00 | 0.00 | 39 | 1013.7 |
| 20260905210724 | 38 | 210 | 1.6 | 1.6 | 0.00 | 0.00 | 0.00 | 38 | 1013.8 |
| 20260905210223 | 38 | 207 | 3.2 | 3.2 | 0.00 | 0.00 | 0.00 | 37 | 1013.9 |
| 20260905205722 | 38 | 303 | 0.0 | 0.0 | 0.00 | 0.00 | 0.00 | 38 | 1014.1 |
| 20260905205216 | 38 | 233 | 0.0 | 0.0 | 0.00 | 0.00 | 0.00 | 39 | 1014.1 |
| 20260905204711 | 38 | 244 | 1.6 | 1.6 | 0.00 | 0.00 | 0.00 | 39 | 1014.3 |
| 20260905204206 | 37 | 234 | 0.0 | 0.0 | 0.00 | 0.00 | 0.00 | 40 | 1014.1 |
| 20260905203700 | 37 | 68 | 4.8 | 4.8 | 0.00 | 0.00 | 0.00 | 41 | 1014.4 |
| 20260905203156 | 37 | 91 | 1.6 | 3.2 | 0.00 | 0.00 | 0.00 | 42 | 1014.4 |
| 20260905202651 | 37 | 85 | 6.4 | 9.7 | 0.00 | 0.00 | 0.00 | 42 | 1014.6 |
| 20260905202146 | 37 | 42 | 8.0 | 9.7 | 0.00 | 0.00 | 0.00 | 42 | 1014.4 |
| 20260905201642 | 37 | 47 | 3.2 | 3.2 | 0.00 | 0.00 | 0.00 | 42 | 1014.5 |
| 20260905201136 | 37 | 65 | 8.0 | 9.7 | 0.00 | 0.00 | 0.00 | 42 | 1014.7 |
| 20260905200632 | 38 | 104 | 1.6 | 1.6 | 0.00 | 0.00 | 0.00 | 41 | 1014.5 |
| 20260905200127 | 38 | 193 | 1.6 | 1.6 | 0.00 | 0.00 | 0.00 | 41 | 1014.6 |
| 20260905195625 | 38 | 221 | 3.2 | 3.2 | 0.00 | 0.00 | 0.00 | 41 | 1014.8 |
| 20260905195121 | 38 | 223 | 0.0 | 0.0 | 0.00 | 0.00 | 0.00 | 41 | 1014.6 |
| 20260905194621 | 38 | 228 | 0.0 | 1.6 | 0.00 | 0.00 | 0.00 | 42 | 1014.9 |
| 20260905194120 | 38 | 142 | 1.6 | 3.2 | 0.00 | 0.00 | 0.00 | 42 | 1014.9 |
| 20260905193615 | 38 | 224 | 0.0 | 1.6 | 0.00 | 0.00 | 0.00 | 41 | 1014.8 |
| 20260905193110 | 37 | 252 | 3.2 | 3.2 | 0.00 | 0.00 | 0.00 | 42 | 1014.9 |
| 20260905192606 | 37 | 222 | 1.6 | 1.6 | 0.00 | 0.00 | 0.00 | 44 | 1015.2 |
| 20260905192102 | 37 | 18 | 4.8 | 8.0 | 0.00 | 0.00 | 0.00 | 43 | 1015.3 |
| 20260905191600 | 36 | 73 | 3.2 | 3.2 | 0.00 | 0.00 | 0.00 | 44 | 1015.4 |
| 20260905191059 | 36 | 55 | 3.2 | 4.8 | 0.00 | 0.00 | 0.00 | 43 | 1015.4 |
| 20260905190557 | 37 | 60 | 4.8 | 8.0 | 0.00 | 0.00 | 0.00 | 44 | 1015.6 |
| 20260905190056 | 38 | 207 | 1.6 | 3.2 | 0.00 | 0.00 | 0.00 | 41 | 1015.4 |
| 20260905185556 | 37 | 238 | 3.2 | 4.8 | 0.00 | 0.00 | 0.00 | 42 | 1015.7 |
| 20260905185050 | 37 | 202 | 0.0 | 1.6 | 0.00 | 0.00 | 0.00 | 43 | 1015.8 |
| 20260905184545 | 37 | 238 | 4.8 | 4.8 | 0.00 | 0.00 | 0.00 | 42 | 1015.7 |
| 20260905184044 | 36 | 159 | 0.0 | 0.0 | 0.00 | 0.00 | 0.00 | 43 | 1015.6 |
| 20260905183543 | 36 | 71 | 4.8 | 8.0 | 0.00 | 0.00 | 0.00 | 44 | 1015.9 |
| 20260905183039 | 37 | 154 | 0.0 | 1.6 | 0.00 | 0.00 | 0.00 | 43 | 1016.2 |
| 20260905182539 | 36 | 223 | 0.0 | 1.6 | 0.00 | 0.00 | 0.00 | 43 | 1016.0 |
| 20260905182038 | 36 | 187 | 0.0 | 1.6 | 0.00 | 0.00 | 0.00 | 43 | 1016.1 |
| 20260905181533 | 36 | 211 | 0.0 | 1.6 | 0.00 | 0.00 | 0.00 | 43 | 1016.2 |
| 20260905181033 | 37 | 236 | 0.0 | 0.0 | 0.00 | 0.00 | 0.00 | 42 | 1016.4 |
| 20260905180527 | 36 | 244 | 3.2 | 3.2 | 0.00 | 0.00 | 0.00 | 42 | 1016.4 |
| 20260905180023 | 37 | 87 | 1.6 | 4.8 | 0.00 | 0.00 | 0.00 | 43 | 1016.4 |